Moab, UT

2:39 AM MST on February 10, 2016 (GMT -0700)
Canyonlands

Weather History for KCNY - August, 2014

Change the Weather History Date:

Saturday, August 30, 2014

  Actual Average Record
Temperature  
Mean Temperature 75 °F 73 °F  
Max Temperature 91 °F 88 °F 108 °F (1990)
Min Temperature 59 °F 58 °F 46 °F (1955)
Degree Days  
Heating Degree Days 0 0  
Month to date heating degree days 0 0  
Since 1 June heating degree days 0 17  
Since 1 July heating degree days 0 0  
Cooling Degree Days 10 8  
Month to date cooling degree days 298 364  
Year to date cooling degree days 1220 1157  
Since 1 June cooling degree days 1121 1093  
Growing Degree Days 25 (Base 50)    
Moisture  
Dew Point 40 °F    
Average Humidity 34    
Maximum Humidity 55    
Minimum Humidity 12    
Precipitation  
Precipitation 0.00 in 0.04 in 0.71 in (1957)
Month to date precipitation 1.56 0.81  
Year to date precipitation 5.31 5.35  
Sea Level Pressure  
Sea Level Pressure 29.79 in    
Wind  
Wind Speed 7 mph (South)    
Max Wind Speed 21 mph    
Max Gust Speed 25 mph    
Visibility 10 miles    
Events      
T = Trace of Precipitation, MM = Missing Value Source: NWS Daily Summary

Daily Weather History Graph

Daily Weather History Graph

Search for Another Location

Airport or City:

Trip Planner

Search our weather history database for the weather conditions in past years. The results will help you decide how hot, cold, wet, or windy it might be!

Date:

Astronomy

Aug. 30, 2014 Rise Set
Actual Time 6:46 AM MDT 7:52 PM MDT
Civil Twilight 6:18 AM MDT 8:19 PM MDT
Nautical Twilight 5:46 AM MDT 8:51 PM MDT
Astronomical Twilight 5:12 AM MDT 9:25 PM MDT
Moon 11:33 AM MDT (8/30) 10:32 PM MDT (8/30)
Length of Visible Light 14h 00m
Length of Day
13h 05m
Waxing Crescent, 23% of the Moon is Illuminated
Aug 30
Waxing Crescent
Sep 2
First Quarter
Sep 8
Full
Sep 15
Last Quarter
Sep 24
New

Hourly Weather History & Observations

Time (MDT) Temp. Dew Point Humidity Pressure Visibility Wind Dir Wind Speed Gust Speed Precip Events Conditions
12:53 AM 72.0 °F 39.9 °F 31% 29.85 in 10.0 mi ESE 5.8 mph - N/A   Clear
1:53 AM 69.8 °F 41.0 °F 35% 30.03 in 10.0 mi Calm Calm - N/A   Clear
2:53 AM 66.9 °F 43.0 °F 42% 29.85 in 10.0 mi Calm Calm - N/A   Clear
3:53 AM 66.9 °F 42.1 °F 40% 29.85 in 10.0 mi Calm Calm - N/A   Clear
4:53 AM 63.0 °F 43.0 °F 48% 29.86 in 10.0 mi Calm Calm - N/A   Clear
5:53 AM 60.1 °F 44.1 °F 55% 29.87 in 10.0 mi South 3.5 mph - N/A   Clear
6:53 AM 64.0 °F 45.0 °F 50% 29.87 in 10.0 mi SE 10.4 mph - N/A   Clear
7:53 AM 66.9 °F 46.9 °F 49% 29.88 in 10.0 mi SE 8.1 mph - N/A   Clear
8:53 AM 70.0 °F 46.9 °F 44% 29.88 in 10.0 mi ESE 6.9 mph - N/A   Clear
9:53 AM 73.9 °F 46.9 °F 38% 29.88 in 10.0 mi SE 8.1 mph - N/A   Clear
10:53 AM 78.1 °F 44.1 °F 30% 29.86 in 10.0 mi SE 6.9 mph - N/A   Clear
11:53 AM 81.0 °F 43.0 °F 26% 29.84 in 10.0 mi SE 6.9 mph - N/A   Clear
12:53 PM 82.9 °F 42.1 °F 24% 29.81 in 10.0 mi SE 3.5 mph - N/A   Clear
1:53 PM 86.0 °F 39.0 °F 19% 29.78 in 10.0 mi SSE 6.9 mph - N/A   Clear
2:53 PM 89.1 °F 39.0 °F 17% 29.76 in 10.0 mi NW 6.9 mph - N/A   Clear
3:53 PM 88.0 °F 36.0 °F 16% 29.73 in 10.0 mi Calm Calm - N/A   Clear
4:53 PM 90.0 °F 35.1 °F 14% 29.70 in 10.0 mi South 5.8 mph - N/A   Clear
5:53 PM 89.1 °F 30.9 °F 12% 29.68 in 10.0 mi SW 12.7 mph - N/A   Clear
6:53 PM 87.1 °F 32.0 °F 14% 29.65 in 10.0 mi SSW 12.7 mph - N/A   Clear
7:53 PM 84.0 °F 32.0 °F 15% 29.65 in 10.0 mi South 10.4 mph - N/A   Clear
8:53 PM 78.8 °F 33.8 °F 20% 29.84 in 10.0 mi SW 9.2 mph - N/A   Clear
9:53 PM 78.1 °F 34.0 °F 20% 29.66 in 10.0 mi SSW 12.7 mph - N/A   Clear
10:53 PM 78.1 °F 34.0 °F 20% 29.64 in 10.0 mi SSW 15.0 mph - N/A   Clear
11:53 PM 77.0 °F 35.1 °F 22% 29.63 in 10.0 mi SW 12.7 mph - N/A   Clear